Tracking 19248 objects as of 26-Sep-2018
HD Live streaming from Space Station
objects crossing your sky now

FENGYUN 1C DEB

Track FENGYUN 1C DEB now!
10-day predictions


NORAD ID: 30944
Int'l Code: 1999-025BAJ
Perigee: 624.9 km
Apogee: 850.0 km
Inclination: 98.8 °
Period: 99.4 minutes
Semi major axis: 7108 km
RCS: 0.0014 m2 (small)
Launch date: May 10, 1999
Source: People's Republic of China (PRC)
Launch site: Taiyaun Space Center, China (TSC)

Note: This is SATELLITE DEBRIS
aabbcc
Your satellite tracking list
Your tracking list is empty




NASA's NSSDC Master Catalog

Two Line Element Set (TLE):
1 30944U 99025BAJ 18267.95015345 +.00000050 +00000-0 +23965-4 0  9995
2 30944 098.8199 154.5768 0158287 119.3371 308.4636 14.48570360608886
Source of the keplerian elements: AFSPC